Date String (YYYY-MM-DD hh:mm:ss) UTC,Instrument flags,Ambient pressure (hPa),Sample flow (lpm),Bypass flow (lpm),Sample temperature (°C),Ambient temperature (°C),ASC tube jacket temperature (°C),LED temperature (°C),Box temperature (°C),Sample RH (%),Span deviation,Mass concentration (μg/m³),Mass concentration (μg/m³),Mass concentration (μg/m³)
DateTimeUTC,F1_M11,P_M11,Q1_M11,Q2_M11,T1_M11,T2_M11,T3_M11,T4_M11,T5_M11,U1_M11,ZSPAN_M11,X0_M11,X2_M11,X1_M11
2023-01-29 15:00:00,,0823.6,5.01,0.00,22.5,20.8,00.0,31.5,24.1,04.7,0000.0,0006.06,0004.11,0003.78
2023-01-29 15:01:00,,0823.6,5.00,0.00,22.6,21.8,00.0,31.4,24.3,04.7,0000.0,0006.00,0004.09,0003.77
2023-01-29 15:02:00,,0823.6,5.00,0.00,22.7,22.6,00.0,31.4,24.6,04.7,0000.0,0005.92,0004.07,0003.76
2023-01-29 15:03:00,,0823.7,5.00,0.00,22.8,23.2,00.0,31.4,24.8,04.6,0000.0,0006.04,0004.08,0003.75
2023-01-29 15:04:00,,0823.7,5.00,0.00,22.8,22.6,00.0,31.5,24.6,04.7,0000.0,0006.15,0004.09,0003.74
2023-01-29 15:05:00,,0823.6,4.99,0.00,22.7,22.0,00.0,31.5,24.5,04.7,0000.0,0006.29,0004.12,0003.73
2023-01-29 15:06:00,,0823.6,4.98,0.00,22.7,21.5,00.0,31.5,24.3,04.7,0000.0,0006.28,0004.11,0003.72
2023-01-29 15:07:00,,0823.7,5.00,0.00,22.6,21.2,00.0,31.5,24.2,04.7,0000.0,0006.33,0004.12,0003.72
2023-01-29 15:08:00,,0823.7,5.00,0.00,22.6,20.9,00.0,31.5,24.1,04.7,0000.0,0006.31,0004.12,0003.72
2023-01-29 15:09:00,,0823.7,4.99,0.00,22.5,20.7,00.0,31.5,24.0,04.8,0000.0,0006.27,0004.11,0003.72
2023-01-29 15:10:00,,0823.7,4.99,0.00,22.5,20.6,00.0,31.5,24.0,04.8,0000.0,0006.12,0004.10,0003.72
2023-01-29 15:11:00,,0823.7,5.00,0.00,22.5,21.1,00.0,31.4,24.1,04.8,0000.0,0006.11,0004.11,0003.72
2023-01-29 15:12:00,,0823.7,5.02,0.00,22.6,22.1,00.0,31.4,24.4,04.8,0000.0,0006.06,0004.11,0003.72
2023-01-29 15:13:00,,0823.7,4.99,0.00,22.7,23.0,00.0,31.4,24.6,04.8,0000.0,0005.98,0004.09,0003.72
2023-01-29 15:14:00,,0823.7,5.00,0.00,22.8,23.2,00.0,31.4,24.8,04.8,0000.0,0006.02,0004.10,0003.71
2023-01-29 15:15:00,,0823.7,5.03,0.00,22.8,22.6,00.0,31.5,24.6,04.8,0000.0,0006.05,0004.09,0003.71
2023-01-29 15:16:00,,0823.7,4.99,0.00,22.8,22.0,00.0,31.5,24.5,04.8,0000.0,0005.98,0004.07,0003.71
2023-01-29 15:17:00,,0823.7,5.00,0.00,22.7,21.6,00.0,31.5,24.4,04.8,0000.0,0005.99,0004.07,0003.71
2023-01-29 15:18:00,,0823.7,5.01,0.00,22.7,21.2,00.0,31.5,24.2,04.8,0000.0,0006.12,0004.06,0003.70
2023-01-29 15:19:00,,0823.7,5.01,0.00,22.6,21.0,00.0,31.5,24.1,04.8,0000.0,0006.21,0004.05,0003.69
2023-01-29 15:20:00,,0823.7,5.00,0.00,22.6,20.7,00.0,31.5,24.1,04.9,0000.0,0006.23,0004.04,0003.68
2023-01-29 15:21:00,,0823.7,5.01,0.00,22.5,21.1,00.0,31.4,24.2,04.9,0000.0,0006.16,0004.02,0003.67
2023-01-29 15:22:00,,0823.7,5.01,0.00,22.6,22.1,00.0,31.4,24.4,04.8,0000.0,0006.51,0004.02,0003.68
2023-01-29 15:23:00,,0823.7,4.98,0.00,22.7,22.9,00.0,31.4,24.7,04.8,0000.0,0006.64,0004.04,0003.68
2023-01-29 15:24:00,,0823.7,5.02,0.00,22.8,22.7,00.0,31.5,24.7,04.8,0000.0,0006.77,0004.08,0003.70
2023-01-29 15:25:00,,0823.8,5.00,0.00,22.8,22.2,00.0,31.5,24.5,04.8,0000.0,0006.73,0004.07,0003.70
2023-01-29 15:26:00,,0823.7,5.01,0.00,22.7,21.7,00.0,31.5,24.4,04.8,0000.0,0006.77,0004.08,0003.71
2023-01-29 15:27:00,,0823.8,5.00,0.00,22.7,21.3,00.0,31.5,24.3,04.9,0000.0,0006.80,0004.09,0003.71
2023-01-29 15:28:00,,0823.7,4.99,0.00,22.6,21.1,00.0,31.5,24.2,04.9,0000.0,0006.79,0004.09,0003.71
2023-01-29 15:29:00,,0823.7,4.99,0.00,22.6,20.8,00.0,31.5,24.1,04.9,0000.0,0006.64,0004.10,0003.72
2023-01-29 15:30:00,,0823.7,4.99,0.00,22.5,20.7,00.0,31.5,24.0,04.9,0000.0,0006.69,0004.13,0003.73
2023-01-29 15:31:00,,0823.7,5.00,0.00,22.5,21.5,00.0,31.4,24.2,04.9,0000.0,0006.71,0004.16,0003.75
2023-01-29 15:32:00,,0823.7,5.01,0.00,22.6,22.4,00.0,31.4,24.5,04.9,0000.0,0006.72,0004.17,0003.77
2023-01-29 15:33:00,,0823.7,4.99,0.00,22.7,22.9,00.0,31.4,24.7,04.9,0000.0,0006.48,0004.19,0003.78
2023-01-29 15:34:00,,0823.7,4.99,0.00,22.8,22.4,00.0,31.5,24.6,04.9,0000.0,0006.46,0004.19,0003.79
2023-01-29 15:35:00,,0823.8,5.03,0.00,22.7,21.9,00.0,31.5,24.4,04.9,0000.0,0006.49,0004.20,0003.80
2023-01-29 15:36:00,,0823.8,4.99,0.00,22.7,21.4,00.0,31.5,24.3,04.9,0000.0,0006.52,0004.22,0003.82
2023-01-29 15:37:00,,0823.7,5.01,0.00,22.6,21.1,00.0,31.5,24.2,04.9,0000.0,0006.50,0004.22,0003.82
2023-01-29 15:38:00,,0823.7,5.00,0.00,22.6,20.9,00.0,31.5,24.2,04.9,0000.0,0006.53,0004.24,0003.82
2023-01-29 15:39:00,,0823.7,5.00,0.00,22.5,20.8,00.0,31.5,24.1,04.9,0000.0,0006.50,0004.23,0003.83
2023-01-29 15:40:00,,0823.7,5.01,0.00,22.5,21.0,00.0,31.4,24.1,05.0,0000.0,0006.40,0004.22,0003.83
2023-01-29 15:41:00,,0823.8,5.00,0.00,22.6,22.0,00.0,31.4,24.4,04.9,0000.0,0006.38,0004.23,0003.84
2023-01-29 15:42:00,,0823.7,5.00,0.00,22.7,22.9,00.0,31.4,24.6,04.9,0000.0,0006.49,0004.23,0003.83
2023-01-29 15:43:00,,0823.7,5.00,0.00,22.8,22.9,00.0,31.4,24.7,04.9,0000.0,0007.68,0004.24,0003.83
2023-01-29 15:44:00,,0823.7,4.99,0.00,22.8,22.3,00.0,31.5,24.6,04.9,0000.0,0007.63,0004.23,0003.83
2023-01-29 15:45:00,,0823.8,5.02,0.00,22.7,21.9,00.0,31.5,24.5,04.9,0000.0,0007.71,0004.26,0003.83
2023-01-29 15:46:00,,0823.8,5.00,0.00,22.7,21.5,00.0,31.5,24.4,04.9,0000.0,0007.71,0004.27,0003.84
2023-01-29 15:47:00,,0823.9,4.98,0.00,22.7,21.2,00.0,31.5,24.2,04.9,0000.0,0007.73,0004.29,0003.85
2023-01-29 15:48:00,,0823.8,5.01,0.00,22.6,21.0,00.0,31.5,24.2,04.9,0000.0,0007.71,0004.29,0003.86
2023-01-29 15:49:00,,0823.7,5.00,0.00,22.6,20.8,00.0,31.5,24.1,04.9,0000.0,0007.70,0004.29,0003.87
2023-01-29 15:50:00,,0823.8,5.01,0.00,22.6,21.4,00.0,31.4,24.2,04.9,0000.0,0007.73,0004.30,0003.87
2023-01-29 15:51:00,,0823.8,4.99,0.00,22.7,22.4,00.0,31.4,24.5,04.9,0000.0,0007.77,0004.31,0003.87
2023-01-29 15:52:00,,0823.8,4.99,0.00,22.8,23.1,00.0,31.4,24.7,04.9,0000.0,0007.86,0004.34,0003.87
2023-01-29 15:53:00,,0823.8,4.99,0.00,22.8,22.7,00.0,31.5,24.7,04.9,0000.0,0007.91,0004.36,0003.89
2023-01-29 15:54:00,,0823.8,5.00,0.00,22.8,22.2,00.0,31.5,24.5,04.9,0000.0,0007.29,0004.35,0003.90
2023-01-29 15:55:00,,0823.9,5.00,0.00,22.7,21.7,00.0,31.5,24.4,04.9,0000.0,0007.61,0004.38,0003.90
2023-01-29 15:56:00,,0824.0,5.00,0.00,22.7,21.4,00.0,31.5,24.3,04.9,0000.0,0007.80,0004.35,0003.89
2023-01-29 15:57:00,,0824.0,5.00,0.00,22.6,21.2,00.0,31.5,24.3,05.0,0000.0,0007.85,0004.35,0003.88
2023-01-29 15:58:00,,0823.9,5.00,0.00,22.6,21.0,00.0,31.5,24.2,05.0,0000.0,0007.88,0004.34,0003.87
2023-01-29 15:59:00,,0823.9,4.99,0.00,22.6,21.0,00.0,31.5,24.2,05.0,0000.0,0007.91,0004.35,0003.88
